Heure de lever du soleil au 27-05-2017 / 146 ° de l'année/ semaine 2105 h 56 Heure de coucher du soleil au 27-05-2017 / 146 ° de l'année/ semaine 2121 h 39

Compte Facebook Association Météo Centre     Compte Twitter Association Météo Centre - @AssoMétéoCentre     Chaîne Youtube Association Météo Centre     Bouton contact Association Météo Centre 

Gif alerte météo

Choix de la station :
Période à consulter :
Aujourd'hui


 

Conditions météo à Abbeville - Altitude 77m

  

Date du relevé27/05/2017 à 19:00
Visibilité20km
Vent9 km/h ONO
Température18.1 °C
Humidité76 %
Point de rosée13.8 °C
Pression absolue1009.1 hPa
Pression relative1017.6 hPa
Variation pression-0.2 hPa stationnaire ou en hausse puis en baisse, puis en baisse plus rapide


Historique météo des dernières 24 heures à Abbeville


Date - Heure Base des nuages Visibilité Nébulosité Vent Température Humidité Point rosée Pression Précipitations Temps
27/05 19:00 20km 9 km/h ONO 18.1 °C 76 % 13.8 °C 1017.6 hPa
27/05 18:00 20km 9 km/h ONO 18.7 °C 74.2 % 14 °C 1017.9 hPa
27/05 17:00 19km 9 km/h ONO 19.6 °C 73.8 % 14.8 °C 1018.1 hPa
27/05 16:00 19km 9 km/h ONO 19 °C 75.2 % 14.5 °C 1017.8 hPa
27/05 15:00 1000 à 1500m 30km 3/8 13 km/h ONO 21.6 °C 67.9 % 15.4 °C 1017.2 hPa
27/05 14:00 1000 à 1500m 30km 3/8 13 km/h O 22.6 °C 65.9 % 15.9 °C 1016.6 hPa 0 mm/6h
27/05 13:00 1000 à 1500m 30km 2/8 6 km/h NO 24.8 °C 63.9 % 17.5 °C 1016 hPa
27/05 12:00 600 à 1000m 30km 6/8 4 km/h SO 25.1 °C 58.2 % 16.3 °C 1015.4 hPa
27/05 11:00 18km 4 km/h SE 22.5 °C 65.9 % 15.8 °C 1015 hPa
27/05 10:00 600 à 1000m 20km 7/8 7 km/h SSE 21.5 °C 67 % 15.1 °C 1015.1 hPa
27/05 09:00 600 à 1000m 40km 6/8 7 km/h SE 20.1 °C 64.1 % 13.1 °C 1014.3 hPa
27/05 08:00 600 à 1000m 40km 3/8 6 km/h SE 18.9 °C 69.1 % 13.1 °C 1014.2 hPa 0 mm/12h
27/05 07:00 600 à 1000m 30km 1/8 7 km/h ESE 17.3 °C 71.1 % 12 °C 1014 hPa
27/05 06:00 600 à 1000m 30km 1/8 7 km/h ESE 16.5 °C 72.8 % 11.6 °C 1014.2 hPa
27/05 05:00 20km 7 km/h ESE 16.7 °C 72.8 % 11.8 °C 1014.3 hPa
27/05 04:00 20km 7 km/h E 17.5 °C 70.2 % 12 °C 1014.3 hPa
27/05 03:00 20km 6 km/h ESE 17.6 °C 71.1 % 12.3 °C 1014.4 hPa
27/05 02:00 20km 2 km/h ESE 17.2 °C 72 % 12.1 °C 1014.4 hPa 0 mm/6h
27/05 01:00 20km 4 km/h ESE 18.8 °C 66.8 % 12.5 °C 1014.4 hPa
27/05 00:00 20km 6 km/h E 18.6 °C 68.1 % 12.6 °C 1014.2 hPa
26/05 23:00 20km 7 km/h E 19.6 °C 66.1 % 13.1 °C 1014.7 hPa
26/05 22:00 20km 6 km/h E 20.1 °C 65.8 % 13.5 °C 1014.6 hPa
26/05 21:00 20km 6 km/h E 23.8 °C 51.9 % 13.3 °C 1014.4 hPa
26/05 20:00 20km 6 km/h ESE 25.7 °C 45.1 % 12.9 °C 1014.6 hPa 0 mm/12h
26/05 19:00 20km 7 km/h ESE 26.2 °C 44.1 % 13 °C 1014.8 hPa

L'association Météo Centre n'est pas responsable de la mise à jour de ces données.

Météo-Centre.fr depuis 2008
Nos informations ne doivent jamais servir à la protection des biens et des personnes. Elles n'engagent pas la responsabilité de l'association Météo Centre.
Contact - Haut de page - Partenaires - Mentions légales